Location: Colossi of Memnon
(25.7167°N, 32.6167°E)
Time: 19:47:38
(UTC+00:00)

Hubble Space Telescope - Visible Passes

Search period start: 25 September 2021 00:00
Search period end: 05 October 2021 00:00
Orbit: 535 x 539 km, 28.5° (Epoch: 24 September)

Date Brightness Start Highest point End Pass type
(mag) Time Alt. Az. Time Alt. Az. Time Alt. Az.
25 Sep 3.5 16:17:04 10° SW 16:18:40 12° SSW 16:20:18 10° S visible
03 Oct 3.7 03:02:08 10° SSE 03:02:58 11° SSE 03:03:49 10° SE visible
04 Oct 3.4 02:49:38 10° S 02:51:51 14° SSE 02:54:05 10° ESE visible
